Location: Choisy
(48.7685°N, 2.4187°E)
Time: 18:28:36
(UTC+00:00)

Envisat - Pass Details

Date: 04 March 2024
Orbit: 762 x 764 km, 98.3° (Epoch: 23 April)

Event Time Altitude Azimuth Distance (km) Brightness Sun altitude
Rises 05:06:21 0° 1° (N) 3,244 6.3 -13.8°
Reaches altitude 10° 05:09:29 10° 341° (NNW) 2,312 5.4 -13.3°
Maximum altitude 05:12:29 16° 304° (NW) 1,917 4.6 -12.8°
Enters shadow 05:13:35 15° 289° (WNW) 1,972 4.6 -12.7°
